Volver al catálogo

PUYIN-1

ActivoCienciaPO
NORAD 53448·PAYLOAD·🇨🇳 China
Este nombre de satélite aún no ha sido confirmado por fuentes oficiales.

Lanzado Aug 10, 2022 desde Taiyuan Satellite Launch Center

Loading…

Próximos Pases (próximas 24 horas)

TLE

ActualizadoSource: Space-Track

Época: Sep 14, 2026, 14:22 UTC

1 53448U 22098E   26257.59880340  .00191040  15399-4  64964-3 0  9992
2 53448  97.5675  36.6596 0002129 272.8410  87.2619 15.89848969228796

Sigue PUYIN-1 en tiempo real con AllMySat

Download on the App Store